This is the latest recevied weather packets stored in our database for station/object KQ4WWD. If no packets are shown the sender has not sent any weather packets the latest 1 day(s).
| Time | Temp. | Humidity | Pressure | Rain* | Wind** | Luminosity | Snow |
|---|---|---|---|---|---|---|---|
| 1777983091 | 19.44° C | 87% | 1015.8 hPa | 0 mm | 0 m/s | 133 W/m² | - |
| 1777982788 | 18.89° C | 87% | 1015.8 hPa | 0 mm | 0 m/s | 82 W/m² | - |
| 1777982484 | 18.33° C | 87% | 1015.7 hPa | 0 mm | 0 m/s | 69 W/m² | - |
| 1777982184 | 18.33° C | 87% | 1015.9 hPa | 0 mm | 0 m/s | 55 W/m² | - |
| 1777981881 | 18.33° C | 87% | 1015.7 hPa | 0 mm | 0 m/s | 51 W/m² | - |
| 1777981578 | 17.78° C | 88% | 1015.7 hPa | 0 mm | 0 m/s | 48 W/m² | - |
| 1777981274 | 17.78° C | 89% | 1015.7 hPa | 0 mm | 0 m/s | 47 W/m² | - |
| 1777980971 | 17.78° C | 89% | 1015.8 hPa | 0 mm | 0 m/s | 41 W/m² | - |
| 1777980668 | 17.22° C | 90% | 1015.7 hPa | 0 mm | 0 m/s | 37 W/m² | - |
| 1777980364 | 17.22° C | 90% | 1015.8 hPa | 0 mm | 0 m/s | 32 W/m² | - |
| 1777980062 | 16.67° C | 90% | 1015.9 hPa | 0 mm | 0 m/s | 29 W/m² | - |
| 1777979756 | 16.67° C | 90% | 1015.7 hPa | 0 mm | 0 m/s | 30 W/m² | - |
| 1777979452 | 16.67° C | 91% | 1015.5 hPa | 0 mm | 0 m/s | 24 W/m² | - |
| 1777979149 | 16.67° C | 91% | 1015.5 hPa | 0 mm | 0 m/s | 20 W/m² | - |
| 1777978846 | 16.67° C | 91% | 1015.2 hPa | 0 mm | 0 m/s | 15 W/m² | - |
| 1777978542 | 16.11° C | 91% | 1015 hPa | 0 mm | 0 m/s | 11 W/m² | - |
| 1777978238 | 16.67° C | 91% | 1015.1 hPa | 0 mm | 0 m/s | 6 W/m² | - |
| 1777977935 | 16.11° C | 91% | 1015 hPa | 0 mm | 0 m/s | 1 W/m² | - |
| 1777977633 | 16.11° C | 91% | 1015.1 hPa | 0 mm | 0 m/s | 1 W/m² | - |
| 1777977329 | 16.11° C | 91% | 1014.9 hPa | 0 mm | 0 m/s | 0 W/m² | - |
| 1777977027 | 16.11° C | 91% | 1014.8 hPa | 0 mm | 0 m/s | 0 W/m² | - |
| 1777976724 | 16.11° C | 91% | 1014.8 hPa | 0 mm | 0 m/s | 0 W/m² | - |
| 1777976421 | 16.11° C | 91% | 1015.1 hPa | 0 mm | 0 m/s | 0 W/m² | - |
| 1777976120 | 16.11° C | 91% | 1014.9 hPa | 0 mm | 0 m/s | 0 W/m² | - |
| 1777975815 | 16.67° C | 91% | 1015 hPa | 0 mm | 0 m/s | 0 W/m² | - |
* Rain latest hour (hover to see other rain measurements)
** Current wind speed in m/s (hover to see current wind gust speed)